Probability
0 0 0 0 0 0 0 1 2 3 6 8 10 11 11 11 14 18 21 21 21 22 20 19 18 18 17 17 19 21 20 20 21 20 19 18 18 19 19 19 19 18 15 12
0 0 0 0 0 0 0 1 3 5 6 7 10 11 12 14 17 21 22 21 19 21 21 19 19 18 18 18 21 21 20 20 19 18 17 17 17 18 17 17 16 16 14 11
0 0 0 0 0 0 1 2 4 4 5 7 9 11 13 16 20 23 23 21 20 20 20 20 20 18 18 20 22 22 19 17 16 15 15 15 15 15 15 14 14 12 11 11
0 0 0 0 0 0 1 2 2 2 4 8 11 12 13 15 19 23 24 23 24 24 23 23 23 22 21 22 23 22 19 16 14 14 14 14 14 14 15 14 13 11 12 12
0 0 0 0 0 0 1 1 1 2 6 11 16 15 13 13 17 21 24 27 28 29 29 29 28 28 27 27 26 25 23 20 18 16 15 14 15 15 15 14 13 13 14 14
0 1 1 0 0 1 1 1 2 5 9 15 18 16 12 13 16 20 26 31 34 34 34 34 32 31 31 30 29 30 28 26 23 20 17 16 15 14 14 14 13 13 13 12
1 1 2 1 1 2 2 2 4 8 12 16 16 13 13 16 19 22 27 33 36 37 36 36 34 32 32 32 31 30 30 28 26 23 20 17 14 13 13 13 13 13 12 10
0 1 2 2 3 3 3 2 4 10 15 16 15 14 15 18 21 24 28 32 36 37 38 36 34 33 32 31 30 28 28 27 24 21 19 16 12 12 12 12 12 11 10 9
0 1 3 5 6 5 4 3 6 11 16 17 17 18 18 20 22 24 28 31 34 36 37 36 34 33 30 28 28 27 25 22 19 17 15 12 10 9 10 10 11 9 8 6
3 4 6 7 7 6 6 6 7 12 15 16 18 19 19 20 20 22 25 29 32 33 33 32 30 28 25 24 24 23 21 17 14 12 11 9 7 6 6 7 7 6 4 3
6 6 7 8 8 7 7 7 9 13 16 17 19 19 18 18 18 19 21 24 27 28 27 24 22 20 19 19 18 17 15 12 11 10 9 8 5 3 2 2 3 2 1 1
5 4 5 7 8 7 7 8 11 13 16 17 18 17 16 17 17 17 18 19 22 23 20 18 16 15 15 15 14 13 12 10 9 8 8 7 4 1 0 0 0 0 0 0
3 3 4 6 7 7 8 11 12 13 13 14 15 14 13 15 16 16 16 17 19 19 15 14 13 12 11 11 12 12 11 9 7 7 6 4 2 0 0 0 0 0 0 0
2 3 4 5 7 8 10 11 13 12 12 12 11 10 11 13 14 15 15 16 17 15 12 12 13 11 9 9 9 10 8 6 5 5 4 2 0 0 0 0 0 0 0 0
4 4 4 4 6 8 9 10 12 13 14 14 12 10 10 12 13 13 13 14 14 12 11 12 13 12 9 8 7 7 6 4 3 3 2 0 0 0 0 0 0 0 0 0
5 5 3 3 5 6 8 10 11 12 14 15 14 12 11 12 13 12 11 11 12 11 10 12 13 12 10 7 5 5 3 2 1 1 0 0 0 0 0 0 0 0 0 0
6 6 4 3 4 5 8 10 10 11 12 13 14 13 12 12 12 11 9 9 8 8 9 11 13 12 9 5 3 2 1 1 0 0 0 0 0 0 0 0 0 0 0 0
6 5 4 3 4 5 8 10 10 10 10 11 13 14 13 12 11 9 7 6 5 4 7 10 11 10 7 3 1 0 0 0 0 0 0 0 0 0 0 0 0 0 0 0
7 5 4 4 4 5 5 7 8 9 10 11 12 13 11 10 9 6 4 3 3 3 4 7 8 7 5 2 1 0 0 0 0 0 0 0 0 0 0 0 0 0 0 0
7 6 6 5 4 4 3 4 7 9 10 10 10 9 7 6 5 3 1 1 1 1 1 3 4 4 4 2 1 0 0 0 0 0 0 0 0 0 0 0 0 0 0 0
6 7 7 5 4 3 3 4 6 8 8 8 8 6 4 3 2 1 0 0 0 0 0 1 3 3 3 2 1 0 0 0 0 0 0 0 0 0 0 0 0 0 0 0
6 6 5 4 3 3 4 5 6 6 6 6 6 4 3 1 1 0 0 0 0 0 0 1 3 3 3 2 1 0 0 0 0 0 0 0 0 0 0 0 0 0 0 0
5 4 3 2 3 4 5 5 5 5 5 5 4 3 2 1 0 0 0 0 0 0 1 2 3 2 1 1 0 0 0 0 0 0 0 0 0 0 0 0 0 0 0 0
3 3 2 2 3 3 4 4 3 2 2 2 1 1 1 0 0 0 0 0 0 0 1 2 2 1 1 1 0 0 0 0 0 0 0 0 0 0 0 0 0 0 0 0
1 1 1 2 2 2 2 2 2 1 1 1 0 0 0 0 0 0 0 0 0 0 1 2 1 0 1 1 0 0 0 0 0 0 0 0 0 0 0 0 0 0 0 0
0 0 1 1 1 1 1 1 1 0 0 0 0 0 0 0 0 0 0 0 1 1 2 2 1 1 1 0 0 0 0 0 0 0 0 0 0 0 0 0 0 0 0 0
0 0 0 0 0 0 0 0 0 0 0 0 0 0 0 0 0 0 0 1 2 2 3 3 2 2 1 0 0 0 0 0 0 0 0 0 0 0 0 0 0 0 0 0
Wind_Speed
4 4 1 1 2 1 2 6 7 7 7 8 8 8 7 7 7 7 6 6 6 6 6 5 4 5 5 5 5 5 5 5 5 4 3 2 2 1 1 1 1 1 1 1
2 2 1 2 2 1 1 2 4 4 4 5 5 5 6 7 9 8 8 8 7 6 6 6 6 5 5 5 5 5 5 4 4 3 3 2 2 1 1 1 1 1 1 1
2 3 3 3 3 1 1 1 5 5 6 5 4 7 9 9 9 10 9 9 9 9 8 8 7 6 6 5 4 5 5 4 3 3 3 2 2 1 1 1 0 1 1 1
2 2 3 7 3 3 4 1 1 3 5 8 8 7 6 8 9 9 8 8 9 8 7 6 6 5 5 4 5 4 4 3 3 3 3 2 2 2 2 1 1 2 2 2
4 3 4 5 3 1 3 2 2 2 4 4 4 4 0 3 7 8 8 7 7 7 7 6 6 6 6 4 4 4 4 3 3 3 3 2 2 2 2 2 2 2 2 2
4 4 5 6 6 2 5 2 4 1 4 5 5 2 4 3 4 5 5 5 5 6 6 6 5 6 7 5 5 5 5 4 3 3 3 3 3 2 1 2 2 1 1 1
4 4 5 6 4 3 3 6 3 1 3 4 3 5 4 3 3 4 5 5 6 6 6 6 5 6 6 5 5 5 4 4 3 3 4 3 2 1 1 1 1 0 1 2
3 3 6 5 2 3 5 3 2 3 3 4 3 4 4 4 5 5 4 4 5 5 5 5 5 6 5 4 4 3 4 3 3 3 3 2 2 1 1 1 1 1 1 1
6 6 5 1 3 3 4 4 3 3 3 6 6 4 4 4 5 5 5 4 4 6 5 4 4 6 6 4 4 4 4 3 3 2 2 2 3 2 1 1 1 1 1 1
2 1 1 1 3 3 3 3 3 4 5 6 6 5 4 4 4 4 4 4 4 6 6 4 4 4 5 5 5 5 5 3 3 3 2 1 1 1 1 2 2 2 2 2
1 1 2 3 2 2 4 5 5 5 4 5 7 6 5 4 3 3 3 3 4 5 5 5 4 3 3 4 4 4 4 3 3 3 3 2 1 1 2 3 3 4 3 3
5 5 3 4 3 2 4 4 5 5 4 3 5 5 5 4 3 3 3 3 3 4 4 3 3 3 3 3 4 5 3 2 2 2 2 2 2 1 2 1 2 3 5 4
4 3 3 2 1 2 3 4 5 5 4 4 3 4 4 3 2 3 3 3 3 3 3 3 3 2 2 2 3 4 3 2 2 2 2 2 2 2 1 2 2 1 2 4
3 3 1 1 0 1 3 4 4 4 3 4 4 4 4 3 3 3 2 2 2 3 2 2 3 2 2 2 3 3 2 2 2 2 2 2 2 2 2 2 1 1 2 3
3 4 4 2 1 3 3 5 5 3 3 2 3 3 4 5 4 3 2 3 3 3 1 2 2 2 1 2 2 2 2 1 1 1 1 2 2 2 2 2 2 2 1 2
2 2 3 4 3 3 4 4 4 2 2 2 2 2 3 4 4 3 2 3 3 2 1 2 2 2 2 2 2 1 1 1 1 1 1 1 1 1 2 2 2 2 2 3
3 3 4 3 3 3 3 3 3 3 3 3 2 2 3 4 3 2 1 1 2 2 2 3 2 2 2 2 3 2 1 1 1 1 1 1 2 2 2 2 2 2 3 4
5 5 6 6 5 4 3 2 3 3 3 3 3 3 3 4 3 2 1 1 1 1 1 2 2 2 2 2 2 2 1 1 1 1 2 2 2 2 2 2 3 3 2 2
4 4 3 4 4 5 4 3 3 2 2 3 3 3 2 2 2 2 1 2 1 1 3 2 2 2 1 2 2 1 1 1 1 1 2 2 2 2 2 2 2 2 2 2
3 3 4 4 4 4 3 3 3 2 2 3 3 3 2 1 2 2 2 1 2 3 3 2 2 1 1 1 1 1 1 1 2 2 1 1 2 2 2 2 2 2 2 2
3 4 5 4 3 2 2 3 3 2 2 3 3 3 2 1 1 2 2 1 3 2 2 2 2 2 2 2 1 1 1 2 2 2 2 2 2 2 2 2 2 2 2 2
3 4 3 3 2 1 1 2 2 2 2 2 2 2 2 1 1 1 1 2 3 2 2 2 2 3 2 2 1 2 2 2 2 2 2 2 2 2 2 2 2 1 1 1
2 3 2 2 2 1 1 1 2 2 3 3 3 3 2 2 2 2 2 3 2 2 2 2 3 4 4 2 2 2 2 2 2 2 2 2 2 2 1 1 1 1 2 2
2 2 2 2 2 2 1 0 0 1 2 2 2 3 3 1 1 2 3 3 3 2 2 3 4 4 3 2 2 2 2 2 2 2 2 2 1 1 1 1 1 1 2 2
2 2 2 2 2 1 2 1 0 0 0 0 1 1 1 2 2 2 2 2 3 3 2 3 4 4 2 2 2 2 2 2 2 2 2 2 2 2 2 2 2 3 2 2
2 2 2 2 2 2 2 1 1 1 1 0 1 1 1 0 1 1 1 2 3 3 2 2 2 3 2 2 3 3 2 2 2 2 2 2 2 3 3 2 3 2 2 2
1 1 1 0 0 1 1 1 2 1 2 2 1 1 1 1 0 1 1 1 1 1 1 2 2 2 2 2 2 3 2 2 2 2 2 2 2 2 2 3 2 2 2 2
Wind_Direction
209 225 206 232 283 291 181 186 181 206 192 205 193 182 179 164 151 146 152 156 161 167 166 165 164 168 171 178 176 168 162 171 183 178 179 178 177 178 181 181 187 181 166 156
338 320 355 349 318 297 252 183 161 151 213 216 182 159 162 165 162 162 166 168 173 175 166 168 170 173 172 176 171 157 160 173 172 158 160 170 179 175 162 179 213 159 153 193
264 312 28 320 264 178 173 191 160 183 212 171 153 172 180 176 170 171 174 171 172 176 177 178 180 175 175 172 157 151 160 168 167 162 166 179 181 154 167 181 204 210 218 202
165 52 226 240 247 148 124 64 134 168 177 174 176 182 188 175 169 171 169 168 176 178 176 177 172 162 160 154 155 155 158 161 165 170 176 169 162 178 190 180 214 233 236 225
132 174 258 289 304 193 139 310 319 154 159 152 128 90 48 200 173 171 171 170 171 172 164 157 156 155 146 150 154 156 163 168 173 171 172 169 182 198 199 193 225 240 236 227
139 163 219 246 269 243 103 309 310 118 149 147 115 127 238 213 160 157 152 153 152 149 140 146 157 148 142 152 158 170 178 180 175 165 168 180 198 209 202 193 221 244 259 251
164 193 242 259 282 61 129 232 274 120 152 152 168 199 202 148 121 136 141 145 142 141 147 158 155 142 145 153 175 184 174 167 167 168 175 183 186 190 183 179 180 236 256 282
154 173 244 279 61 129 198 205 125 110 126 126 123 112 111 115 118 120 120 128 134 137 143 151 151 146 151 169 178 158 148 151 163 174 182 173 169 192 183 161 168 237 258 309
182 204 232 230 136 159 148 125 119 118 122 122 119 120 123 131 127 122 128 138 135 135 132 135 147 149 158 178 161 147 146 158 168 164 165 166 170 189 193 174 176 209 215 244
66 315 319 40 76 75 89 112 132 127 125 127 131 135 133 133 129 128 134 139 136 134 138 151 160 160 169 168 155 148 155 166 169 165 168 167 168 178 183 195 190 208 214 228
71 271 13 352 20 73 71 78 86 88 106 129 127 129 134 133 131 128 124 131 143 148 156 169 167 161 164 156 147 153 164 173 177 178 178 177 173 194 201 213 205 200 219 213
209 217 178 252 275 97 95 102 104 98 78 87 120 128 125 125 133 127 123 124 134 140 146 158 153 155 167 165 156 155 161 176 179 173 179 173 155 5 349 265 243 215 207 198
194 204 180 224 312 95 107 109 108 110 121 109 103 117 119 126 132 126 122 118 133 144 150 152 150 161 181 166 148 151 165 176 182 181 183 189 179 174 233 335 352 335 208 208
157 121 73 304 260 71 102 102 94 90 98 116 125 125 124 121 115 115 129 139 132 123 128 141 144 175 200 163 147 156 168 187 192 193 193 197 201 196 190 196 233 294 289 249
179 153 167 193 156 126 113 107 101 93 84 85 110 119 133 137 143 152 155 140 126 117 125 148 159 209 206 152 149 158 159 178 189 203 191 197 202 193 192 198 201 211 247 280
186 128 127 125 132 132 120 119 121 125 116 105 107 128 150 149 145 140 136 133 133 155 188 180 195 214 179 144 138 140 164 198 194 192 185 208 219 193 192 196 201 204 214 229
159 165 143 138 136 133 142 147 145 138 130 124 142 142 127 119 114 108 108 138 152 179 196 186 203 201 166 159 155 163 184 236 260 226 197 203 208 209 200 193 202 216 230 229
167 173 163 158 154 132 119 110 107 112 135 149 132 119 127 139 152 168 184 149 102 13 268 219 194 177 176 176 164 171 191 210 216 208 203 200 208 209 197 195 208 221 242 248
134 137 138 139 140 133 128 124 127 132 135 128 127 138 154 161 159 156 141 128 141 233 269 250 196 164 186 205 167 164 187 217 243 240 224 214 208 207 207 214 223 228 224 224
107 118 115 109 110 123 130 139 140 138 144 134 130 129 128 169 160 152 148 192 217 221 227 221 190 182 188 187 133 172 204 220 225 232 227 210 211 223 225 225 225 223 217 210
107 113 111 109 101 97 125 134 133 147 161 143 147 162 176 191 174 159 159 245 271 245 224 217 196 192 188 202 188 179 199 214 220 221 219 218 218 222 228 228 225 221 215 208
109 114 114 111 107 95 109 122 139 155 155 145 145 153 153 168 182 198 227 232 247 235 220 222 215 210 211 211 212 214 225 234 236 229 227 224 218 222 228 229 227 215 200 196
111 122 127 130 137 145 98 112 140 152 162 168 173 177 186 209 207 195 251 259 235 232 226 230 230 224 230 220 224 232 237 234 233 231 228 223 219 221 216 210 203 198 200 206
141 135 140 132 114 108 104 264 201 180 186 191 196 197 191 199 266 245 221 218 222 229 231 233 236 238 234 226 231 235 243 241 235 226 215 205 199 188 185 185 189 204 212 216
138 125 125 124 127 164 199 206 263 269 216 247 268 246 210 184 198 232 219 213 221 231 245 244 242 245 234 236 239 239 237 229 214 206 204 200 197 195 199 202 205 211 216 219
156 159 171 180 186 197 199 177 180 217 150 116 314 297 273 242 209 218 227 228 229 225 223 228 232 235 233 236 236 231 232 231 223 219 217 213 211 210 212 217 221 220 220 223
169 145 122 52 320 214 178 163 171 193 187 175 206 257 258 261 263 264 266 263 237 226 233 241 241 239 239 238 235 231 228 223 216 214 216 223 226 225 222 218 217 216 218 225